When you browse on this site, cookies collect data to enhance your experience and personalize the content and advertising you see.
Visit our Privacy Policy to learn more. By continuing to use the site, you agree to this use of cookies and data.
  • In Romania
  • List of Countries
  • For 7 days
  • Water Temperature
  • Weather Map
  • Weather Widgets
  • user-avatar
    Login

    Hourly Weather Barlinek

    Today, 18 September, Wednesday

    Time Temperature Precipitation Wind Pressure Humidity
    00:00 +6°C° 0 mm 7 mps 752 mmHg 74%
    01:00 +6°C° 0 mm 7 mps 753 mmHg 72%
    02:00 +6°C° 0 mm 7 mps 754 mmHg 74%
    03:00 +7°C° 0 mm 6 mps 754 mmHg 76%
    04:00 +7°C° 0 mm 5 mps 754 mmHg 78%
    05:00 +7°C° 0 mm 6 mps 755 mmHg 78%
    06:00 +7°C° 0 mm 6 mps 756 mmHg 78%
    07:00 +7°C° 0 mm 6 mps 756 mmHg 78%
    08:00 +9°C° 0 mm 6 mps 756 mmHg 72%
    09:00 +10°C° 0 mm 7 mps 757 mmHg 66%
    10:00 +12°C° 0 mm 7 mps 757 mmHg 61%
    11:00 +12°C° 0 mm 7 mps 757 mmHg 60%
    12:00 +12°C° 0 mm 7 mps 757 mmHg 60%
    13:00 +12°C° 0 mm 7 mps 758 mmHg 60%
    14:00 +12°C° 0 mm 7 mps 758 mmHg 60%
    15:00 +11°C° 0 mm 7 mps 758 mmHg 61%
    16:00 +11°C° 0 mm 7 mps 758 mmHg 62%
    17:00 +11°C° 0 mm 6 mps 758 mmHg 62%
    18:00 +10°C° 0 mm 6 mps 758 mmHg 62%
    19:00 +9°C° 0 mm 5 mps 758 mmHg 62%
    20:00 +9°C° 0 mm 5 mps 758 mmHg 64%
    21:00 +8°C° 0 mm 4 mps 759 mmHg 66%
    22:00 +8°C° 0 mm 4 mps 759 mmHg 68%
    23:00 +7°C° 0 mm 4 mps 759 mmHg 75%

    Tomorrow, 19 September, Thursday

    Time Temperature Precipitation Wind Pressure Humidity
    00:00 +6°C° 0 mm 4 mps 759 mmHg 82%
    01:00 +6°C° 0 mm 4 mps 759 mmHg 88%
    02:00 +6°C° 0 mm 4 mps 760 mmHg 91%
    03:00 +5°C° 0 mm 3 mps 760 mmHg 93%
    04:00 +5°C° 0 mm 3 mps 760 mmHg 96%
    05:00 +6°C° 0 mm 4 mps 760 mmHg 94%
    06:00 +6°C° 0 mm 4 mps 760 mmHg 92%
    07:00 +7°C° 0 mm 4 mps 761 mmHg 91%
    08:00 +10°C° 0.1 mm 4 mps 761 mmHg 82%
    09:00 +11°C° 0.1 mm 4 mps 761 mmHg 74%
    10:00 +13°C° 0.1 mm 4 mps 762 mmHg 66%
    11:00 +14°C° 0.6 mm 4 mps 762 mmHg 64%
    12:00 +14°C° 0.6 mm 5 mps 762 mmHg 62%
    13:00 +14°C° 0.6 mm 5 mps 762 mmHg 60%
    14:00 +14°C° 0.2 mm 4 mps 762 mmHg 60%
    15:00 +14°C° 0.2 mm 4 mps 762 mmHg 59%
    16:00 +14°C° 0.2 mm 3 mps 762 mmHg 59%
    17:00 +12°C° 0 mm 3 mps 762 mmHg 64%
    18:00 +12°C° 0 mm 2 mps 763 mmHg 69%
    19:00 +9°C° 0 mm 2 mps 763 mmHg 74%
    20:00 +9°C° 0 mm 2 mps 763 mmHg 77%
    21:00 +8°C° 0 mm 2 mps 763 mmHg 79%
    22:00 +7°C° 0 mm 2 mps 763 mmHg 82%
    23:00 +7°C° 0 mm 2 mps 763 mmHg 86%

    Day after tomorrow, 20 September, Friday

    Time Temperature Precipitation Wind Pressure Humidity
    00:00 +7°C° 0 mm 2 mps 763 mmHg 89%
    01:00 +6°C° 0 mm 2 mps 763 mmHg 93%
    02:00 +6°C° 0 mm 2 mps 763 mmHg 93%
    03:00 +6°C° 0 mm 2 mps 763 mmHg 93%
    04:00 +6°C° 0 mm 2 mps 763 mmHg 93%
    05:00 +6°C° 0 mm 2 mps 763 mmHg 92%
    06:00 +6°C° 0 mm 2 mps 763 mmHg 92%
    07:00 +7°C° 0 mm 2 mps 763 mmHg 91%
    08:00 +9°C° 0 mm 2 mps 763 mmHg 84%
    09:00 +12°C° 0 mm 2 mps 764 mmHg 77%
    10:00 +13°C° 0 mm 2 mps 764 mmHg 70%
    11:00 +14°C° 0 mm 2 mps 764 mmHg 65%
    12:00 +15°C° 0 mm 2 mps 764 mmHg 59%
    13:00 +16°C° 0 mm 2 mps 764 mmHg 53%
    14:00 +16°C° 0 mm 2 mps 764 mmHg 54%
    15:00 +16°C° 0 mm 2 mps 763 mmHg 54%
    16:00 +16°C° 0 mm 2 mps 763 mmHg 55%
    17:00 +14°C° 0 mm 2 mps 763 mmHg 61%
    18:00 +13°C° 0 mm 2 mps 763 mmHg 68%
    19:00 +11°C° 0 mm 1 mps 764 mmHg 74%
    20:00 +11°C° 0 mm 1 mps 764 mmHg 76%
    21:00 +10°C° 0 mm 1 mps 764 mmHg 78%
    22:00 +9°C° 0 mm 0 mps 764 mmHg 80%
    23:00 +8°C° 0 mm 0 mps 764 mmHg 81%

    21 September, Saturday

    Time Temperature Precipitation Wind Pressure Humidity
    00:00 +8°C° 0 mm 0 mps 764 mmHg 82%
    01:00 +8°C° 0 mm 0 mps 764 mmHg 82%
    02:00 +9°C° 0 mm 1 mps 764 mmHg 83%
    03:00 +8°C° 0 mm 1 mps 764 mmHg 84%
    04:00 +8°C° 0 mm 1 mps 764 mmHg 85%
    05:00 +9°C° 0 mm 1 mps 763 mmHg 84%
    06:00 +9°C° 0 mm 1 mps 763 mmHg 83%
    07:00 +9°C° 0 mm 1 mps 763 mmHg 81%
    08:00 +10°C° 0 mm 2 mps 763 mmHg 73%
    09:00 +13°C° 0 mm 2 mps 764 mmHg 64%
    10:00 +15°C° 0 mm 2 mps 764 mmHg 56%
    11:00 +16°C° 0 mm 2 mps 763 mmHg 52%
    12:00 +17°C° 0 mm 2 mps 763 mmHg 48%
    13:00 +18°C° 0 mm 2 mps 763 mmHg 43%
    14:00 +19°C° 0 mm 2 mps 762 mmHg 44%
    15:00 +19°C° 0 mm 2 mps 762 mmHg 44%
    16:00 +19°C° 0 mm 2 mps 761 mmHg 44%
    17:00 +17°C° 0 mm 2 mps 761 mmHg 49%
    18:00 +15°C° 0 mm 2 mps 761 mmHg 54%
    19:00 +13°C° 0 mm 2 mps 761 mmHg 59%
    20:00 +12°C° 0 mm 3 mps 761 mmHg 60%
    21:00 +11°C° 0 mm 3 mps 761 mmHg 62%
    22:00 +11°C° 0 mm 3 mps 760 mmHg 64%
    23:00 +10°C° 0 mm 3 mps 760 mmHg 66%

    22 September, Sunday

    Time Temperature Precipitation Wind Pressure Humidity
    00:00 +10°C° 0 mm 3 mps 760 mmHg 69%
    01:00 +9°C° 0 mm 2 mps 759 mmHg 71%
    02:00 +9°C° 0 mm 3 mps 759 mmHg 72%
    03:00 +9°C° 0 mm 3 mps 759 mmHg 73%
    04:00 +9°C° 0 mm 3 mps 758 mmHg 74%
    05:00 +9°C° 0 mm 3 mps 758 mmHg 73%
    06:00 +9°C° 0 mm 3 mps 757 mmHg 72%
    07:00 +9°C° 0 mm 3 mps 757 mmHg 71%
    08:00 +11°C° 0 mm 3 mps 757 mmHg 64%
    09:00 +14°C° 0 mm 3 mps 757 mmHg 57%
    10:00 +17°C° 0 mm 3 mps 756 mmHg 50%
    11:00 +18°C° 0 mm 3 mps 756 mmHg 47%
    12:00 +20°C° 0 mm 3 mps 755 mmHg 43%
    13:00 +21°C° 0 mm 3 mps 755 mmHg 40%
    14:00 +21°C° 0 mm 3 mps 754 mmHg 42%
    15:00 +21°C° 0 mm 3 mps 754 mmHg 45%
    16:00 +21°C° 0 mm 2 mps 753 mmHg 48%
    17:00 +20°C° 0 mm 2 mps 753 mmHg 50%
    18:00 +19°C° 0 mm 2 mps 753 mmHg 52%
    19:00 +17°C° 0 mm 2 mps 753 mmHg 54%
    20:00 +17°C° 0 mm 2 mps 752 mmHg 57%
    21:00 +16°C° 0 mm 2 mps 752 mmHg 60%
    22:00 +15°C° 0 mm 2 mps 752 mmHg 63%
    23:00 +15°C° 0 mm 2 mps 752 mmHg 64%

    23 September, Monday

    Time Temperature Precipitation Wind Pressure Humidity
    00:00 +15°C° 0 mm 2 mps 752 mmHg 65%
    01:00 +14°C° 0 mm 2 mps 752 mmHg 66%
    02:00 +14°C° 0 mm 2 mps 751 mmHg 65%
    03:00 +14°C° 0 mm 2 mps 751 mmHg 63%
    04:00 +14°C° 0 mm 2 mps 751 mmHg 62%
    05:00 +15°C° 0 mm 2 mps 751 mmHg 63%
    06:00 +15°C° 0 mm 2 mps 751 mmHg 63%
    07:00 +15°C° 0 mm 2 mps 750 mmHg 64%
    08:00 +16°C° 0 mm 2 mps 751 mmHg 61%
    09:00 +18°C° 0 mm 2 mps 751 mmHg 59%
    10:00 +20°C° 0 mm 2 mps 751 mmHg 56%
    11:00 +20°C° 0 mm 2 mps 751 mmHg 58%
    12:00 +21°C° 0 mm 2 mps 751 mmHg 60%
    13:00 +23°C° 0 mm 2 mps 750 mmHg 62%
    14:00 +21°C° 0.1 mm 2 mps 751 mmHg 68%
    15:00 +20°C° 0.1 mm 2 mps 751 mmHg 75%
    16:00 +19°C° 0.1 mm 2 mps 751 mmHg 81%
    17:00 +18°C° 1.1 mm 2 mps 751 mmHg 85%
    18:00 +17°C° 1.1 mm 3 mps 751 mmHg 89%
    19:00 +16°C° 1.1 mm 3 mps 751 mmHg 93%
    20:00 +15°C° 2 mm 4 mps 751 mmHg 94%
    21:00 +15°C° 2 mm 4 mps 751 mmHg 94%
    22:00 +15°C° 2 mm 5 mps 751 mmHg 94%
    23:00 +15°C° 1 mm 5 mps 751 mmHg 94%
    Show more